Change the Weather History Date:

Tuesday, September 24, 2013

  Actual Average Record
Temperature  
Mean Temperature 62 °F -  
Max Temperature 75 °F 62 °F 75 °F (1999)
Min Temperature 50 °F 48 °F 39 °F (2003)
Degree Days  
Heating Degree Days 2    
Growing Degree Days 12 (Base 50)    
Moisture  
Dew Point 55 °F    
Average Humidity 78    
Maximum Humidity 100    
Minimum Humidity 50    
Precipitation  
Precipitation 0.00 in 0.07 in - ()
Sea Level Pressure  
Sea Level Pressure 29.99 in    
Wind  
Wind Speed 4 mph ()    
Max Wind Speed 8 mph    
Max Gust Speed -    
Visibility 6.1 miles    
Events      
Averages and records for this station are not official NWS values.
T = Trace of Precipitation, MM = Missing Value Source: Averaged Metar Reports

Daily Weather History Graph

Daily Weather History Graph

Search for Another Location

Airport or City:

Trip Planner

Search our weather history database for the weather conditions in past years. The results will help you decide how hot, cold, wet, or windy it might be!

Date:

Astronomy

Sep. 24, 2013 Rise Set
Actual Time 7:39 AM CEST 7:43 PM CEST
Civil Twilight 7:08 AM CEST 8:15 PM CEST
Nautical Twilight 6:31 AM CEST 8:52 PM CEST
Astronomical Twilight 5:52 AM CEST 9:30 PM CEST
Moon 10:23 PM CEST (9/24) 1:06 PM CEST (9/24)
Length of Visible Light 13h 07m
Length of Day
12h 04m
Waning Gibbous, 75% of the Moon is Illuminated
Sep 24
Waning Gibbous
Sep 27
Last Quarter
Oct 5
New
Oct 12
First Quarter
Oct 19
Full

Hourly Weather History & Observations

Time (CEST) Temp. Dew Point Humidity Pressure Visibility Wind Dir Wind Speed Gust Speed Precip Events Conditions
12:00 AM 57.2 °F 51.8 °F 82% 30.12 in 6.2 mi East 5.8 mph - N/A   Unknown
12:30 AM 57.2 °F 55.4 °F 94% 30.09 in 6.2 mi ENE 3.5 mph - N/A   Unknown
1:00 AM 57.2 °F 55.4 °F 94% 30.09 in 6.2 mi NE 3.5 mph - N/A   Unknown
1:30 AM 57.2 °F 53.6 °F 88% 30.09 in 6.2 mi NNE 3.5 mph - N/A   Unknown
2:00 AM 55.4 °F 53.6 °F 94% 30.09 in 6.2 mi ENE 3.5 mph - N/A   Unknown
2:30 AM 55.4 °F 53.6 °F 94% 30.09 in 6.2 mi ENE 3.5 mph - N/A   Unknown
3:00 AM 55.4 °F 53.6 °F 94% 30.06 in 6.2 mi ENE 3.5 mph - N/A   Unknown
3:30 AM 55.4 °F 51.8 °F 88% 30.06 in 6.2 mi ENE 5.8 mph - N/A   Unknown
4:00 AM 55.4 °F 53.6 °F 94% 30.06 in 6.2 mi NE 3.5 mph - N/A   Unknown
4:30 AM 55.4 °F 53.6 °F 94% 30.04 in 6.2 mi ENE 3.5 mph - N/A   Unknown
5:00 AM 53.6 °F 51.8 °F 94% 30.04 in 6.2 mi NE 4.6 mph - N/A   Unknown
5:30 AM 53.6 °F 51.8 °F 94% 30.04 in 6.2 mi Variable 1.2 mph - N/A   Unknown
6:00 AM 53.6 °F 51.8 °F 94% 30.04 in 6.2 mi Variable 2.3 mph - N/A   Unknown
6:30 AM 53.6 °F 51.8 °F 94% 30.01 in 6.2 mi NE 2.3 mph - N/A   Unknown
7:00 AM 51.8 °F 50.0 °F 94% 30.04 in 6.2 mi North 3.5 mph - N/A   Unknown
7:30 AM 51.8 °F 50.0 °F 94% 30.01 in 5.6 mi North 3.5 mph - N/A   Unknown
8:00 AM 50.0 °F 48.2 °F 94% 30.04 in 4.3 mi North 4.6 mph - N/A   Unknown
8:30 AM 51.8 °F 51.8 °F 100% 30.04 in 4.3 mi NNE 3.5 mph - N/A   Unknown
9:00 AM 53.6 °F 51.8 °F 94% 30.01 in 6.2 mi North 5.8 mph - N/A   Unknown
9:30 AM 55.4 °F 53.6 °F 94% 30.01 in 6.2 mi NNE 4.6 mph - N/A   Unknown
10:00 AM 59.0 °F 55.4 °F 88% 30.01 in 6.2 mi ENE 4.6 mph - N/A   Unknown
10:30 AM 60.8 °F 55.4 °F 82% 30.01 in 6.2 mi ENE 5.8 mph - N/A   Unknown
11:00 AM 62.6 °F 57.2 °F 82% 30.01 in 6.2 mi ENE 5.8 mph - N/A   Unknown
11:30 AM 64.4 °F 57.2 °F 77% 30.01 in 6.2 mi ENE 5.8 mph - N/A   Unknown
12:00 PM 66.2 °F 57.2 °F 73% 29.98 in 6.2 mi East 6.9 mph - N/A   Unknown
12:30 PM 68.0 °F 59.0 °F 73% 29.98 in 6.2 mi East 5.8 mph - N/A   Unknown
1:00 PM 69.8 °F 57.2 °F 64% 29.98 in 6.2 mi East 5.8 mph - N/A   Unknown
1:30 PM 71.6 °F 59.0 °F 64% 29.98 in 6.2 mi East 5.8 mph - N/A   Unknown
2:00 PM 71.6 °F 57.2 °F 60% 29.98 in 6.2 mi ESE 8.1 mph - N/A   Unknown
2:30 PM 71.6 °F 57.2 °F 60% 29.95 in 6.2 mi East 6.9 mph - N/A   Unknown
3:00 PM 73.4 °F 57.2 °F 57% 29.95 in 6.2 mi East 4.6 mph - N/A   Unknown
3:30 PM 75.2 °F 57.2 °F 53% 29.95 in 6.2 mi East 6.9 mph - N/A   Unknown
4:00 PM 73.4 °F 55.4 °F 53% 29.95 in 6.2 mi ENE 5.8 mph - N/A   Unknown
4:30 PM 75.2 °F 57.2 °F 53% 29.92 in 6.2 mi East 5.8 mph - N/A   Unknown
5:00 PM 75.2 °F 55.4 °F 50% 29.92 in 6.2 mi Variable 2.3 mph - N/A   Unknown
5:30 PM 75.2 °F 55.4 °F 50% 29.92 in 6.2 mi Variable 3.5 mph - N/A   Unknown
6:00 PM 75.2 °F 57.2 °F 53% 29.92 in 6.2 mi Variable 2.3 mph - N/A   Unknown
6:30 PM 75.2 °F 55.4 °F 50% 29.89 in 6.2 mi Variable 2.3 mph - N/A   Unknown
7:00 PM 73.4 °F 53.6 °F 50% 29.92 in 6.2 mi Variable 2.3 mph - N/A   Unknown
7:30 PM 71.6 °F 55.4 °F 57% 29.92 in 6.2 mi NE 1.2 mph - N/A   Unknown
8:00 PM 69.8 °F 57.2 °F 64% 29.92 in 6.2 mi NNE 4.6 mph - N/A   Unknown
8:30 PM 66.2 °F 55.4 °F 68% 29.92 in 6.2 mi NNE 4.6 mph - N/A   Unknown
9:00 PM 64.4 °F 55.4 °F 73% 29.92 in 6.2 mi NNE 5.8 mph - N/A   Unknown
9:30 PM 62.6 °F 55.4 °F 77% 29.92 in 6.2 mi North 6.9 mph - N/A   Unknown
10:00 PM 62.6 °F 55.4 °F 77% 29.92 in 6.2 mi North 5.8 mph - N/A   Unknown
10:30 PM 60.8 °F 55.4 °F 82% 29.92 in 6.2 mi North 5.8 mph - N/A   Unknown
11:00 PM 60.8 °F 55.4 °F 82% 29.92 in 6.2 mi North 5.8 mph - N/A   Unknown
11:30 PM 59.0 °F 55.4 °F 88% 29.92 in 6.2 mi North 2.3 mph - N/A   Unknown